COSMOS 1275 DEB, 42211

Orbit data source: Space-Track

COSMOS 1275 DEB, 42211 is space debris in LEO originally from a launch on Thu, 04 Jun 1981 UTC launched from the Plesetsk Missile And Space Complex (PKMTR). Debris objects in space refer to the collection of defunct objects orbiting the Earth. Examples of debris include non-operational satellites, rocket bodies, and fragments generated from explosions, collisions, or faulty payload assembly.

Loading next visibility...
Identifier
42211, 1981-053UB
Orbit
LEO
Country
Flag of CISCIS
Related business
Manufacturer
Unknown
Mission
Spacecraft
Bus & Motor
Unknown
Mass
Unknown
Launch date (UTC)
1981-06-04 (44 years ago)
Launch vehicle
Unknown
Launch site
Plesetsk Missile And Space Complex (PKMTR)
Object type
Payload
Rocket body
Debris
Shape & HBR
Unknown shape, 0.1 m
Radar Cross Section
Small (<0.1 m²)

Expand to show TLE details & history
Last TLE update: 15 hours ago

TLE from 15 hours ago
0 COSMOS 1275 DEB
1 42211U 81053UB  25292.60759037  .00007860  00000-0  35455-2 0  9999
2 42211  82.8370 238.3323 0038814 250.0171 109.6829 14.21668277 69367
Epoch: 2025-10-19T14:34Z
TLE epoch observation values (Epoch: 2025-10-19T14:34:55.807Z)
Latitude
-0.00007°
Longitude
-8.72206°
Altitude
832.186 km
Speed
7.432 km/s
True Right ascension
15h 53m 19s
True Declination
0° 00' 00"
Sunlit
Object was in daylight at epoch
Visualization orbit readout
Latitude
Unknown
Longitude
Unknown
Altitude
Unknown
Speed
Unknown
Apparent Right ascension
Unknown
Apparent Declination
Unknown
Sunlit
N/A
Visualization observer readout
Local Sidereal Time
00:58:57
Azimuth
Unknown
Elevation
Unknown
Doppler factor
Unknown
Orbital elements
Apogee altitude
844.731 km
Perigee altitude
788.878 km
Semi-major axis
7,194.942 km
Eccentricity
0.00388
Inclination
82.837°
RAAN
238.3323°
Arg. of periapsis
250.0171°
True anomaly
110.101°
Mean anomaly
109.6829°
Eccentric anomaly
109.89202°
Mean motion
3.55633 °/min
Orbital period
101.23 mins
BSTAR
0.0035455
Loading maneuver chart data...
Computing Atmospheric mass density...

Documentation

Showing up to 5 results
|